Weather History for Rome Ciampino, Italy

Change the Weather History Date:

Friday, January 4, 2013

  Actual Average Record
Temperature  
Mean Temperature 47 °F -  
Max Temperature 55 °F 53 °F 60 °F (2014)
Min Temperature 39 °F 37 °F 24 °F (2002)
Degree Days  
Heating Degree Days 18    
Moisture  
Dew Point 39 °F    
Average Humidity 80    
Maximum Humidity 100    
Minimum Humidity 58    
Precipitation  
Precipitation 0.00 in 0.13 in - ()
Sea Level Pressure  
Sea Level Pressure 30.39 in    
Wind  
Wind Speed 3 mph ()    
Max Wind Speed 7 mph    
Max Gust Speed -    
Visibility 5.9 miles    
Events      
Averages and records for this station are not official NWS values.
T = Trace of Precipitation, MM = Missing Value Source: Averaged Metar Reports

Daily Weather History Graph

Daily Weather History Graph

Search for Another Location

Airport:

Trip Planner

Search our weather history database for the weather conditions in past years. The results will help you decide how hot, cold, wet, or windy it might be!

Date:

Astronomy

Jan. 04, 2013 Rise Set
Actual Time 7:37 AM CET 4:52 PM CET
Civil Twilight 7:05 AM CET 5:23 PM CET
Nautical Twilight 6:31 AM CET 5:58 PM CET
Astronomical Twilight 5:57 AM CET 6:32 PM CET
Moon No Moon Rise 11:04 AM CET (1/4)
Length of Visible Light 10h 17m
Length of Day
9h 15m
Waning Gibbous, 58% of the Moon is Illuminated
Jan 4
Waning Gibbous
Jan 5
Last Quarter
Jan 11
New
Jan 19
First Quarter
Jan 27
Full

Hourly Weather History & Observations

Time (CET) Temp. Windchill Dew Point Humidity Pressure Visibility Wind Dir Wind Speed Gust Speed Precip Events Conditions
12:15 AM 42.8 °F - 41.0 °F 93% 30.48 in - Calm Calm - N/A   Clear
12:45 AM 42.8 °F - 41.0 °F 93% 30.48 in - Calm Calm - N/A   Clear
1:15 AM 41.0 °F - 41.0 °F 100% 30.48 in - Calm Calm - N/A   Clear
1:45 AM 41.0 °F - 39.2 °F 93% 30.48 in - NE 2.3 mph - N/A   Clear
2:15 AM 39.2 °F 35.9 °F 37.4 °F 93% 30.48 in - ENE 4.6 mph - N/A   Clear
2:45 AM 39.2 °F 37.0 °F 37.4 °F 93% 30.48 in - NE 3.5 mph - N/A   Clear
3:15 AM 41.0 °F 39.0 °F 39.2 °F 93% 30.45 in 5.0 mi NE 3.5 mph - N/A   Unknown
3:45 AM 39.2 °F - 37.4 °F 93% 30.45 in 5.0 mi NNE 2.3 mph - N/A   Unknown
4:15 AM 39.2 °F 35.0 °F 37.4 °F 93% 30.48 in 5.0 mi NE 5.8 mph - N/A   Unknown
4:45 AM 39.2 °F 37.0 °F 37.4 °F 93% 30.42 in 5.0 mi NE 3.5 mph - N/A   Unknown
5:15 AM 39.2 °F - 37.4 °F 93% 30.42 in 5.0 mi Calm Calm - N/A   Unknown
5:45 AM 39.2 °F - 37.4 °F 93% 30.42 in 5.0 mi North 2.3 mph - N/A   Unknown
6:15 AM 39.2 °F - 37.4 °F 93% 30.42 in - NE 1.2 mph - N/A   Clear
6:45 AM 39.2 °F 35.9 °F 37.4 °F 93% 30.42 in 6.2 mi NE 4.6 mph - N/A   Partly Cloudy
7:15 AM 39.2 °F 35.0 °F 37.4 °F 93% 30.42 in 6.2 mi ENE 5.8 mph - N/A   Partly Cloudy
7:45 AM 39.2 °F - 37.4 °F 93% 30.42 in 6.2 mi ENE 2.3 mph - N/A   Partly Cloudy
8:15 AM 39.2 °F 35.9 °F 37.4 °F 93% 30.45 in 6.2 mi North 4.6 mph - N/A   Partly Cloudy
8:45 AM 41.0 °F 37.1 °F 39.2 °F 93% 30.45 in 6.2 mi ENE 5.8 mph - N/A   Partly Cloudy
9:15 AM 42.8 °F 41.1 °F 41.0 °F 93% 30.45 in 6.2 mi NNW 3.5 mph - N/A   Partly Cloudy
9:45 AM 42.8 °F 41.1 °F 41.0 °F 93% 30.42 in 6.2 mi NNW 3.5 mph - N/A   Partly Cloudy
10:15 AM 44.6 °F 42.2 °F 39.2 °F 81% 30.42 in 6.2 mi NNW 4.6 mph - N/A   Partly Cloudy
10:45 AM 44.6 °F 41.4 °F 39.2 °F 81% 30.42 in 6.2 mi North 5.8 mph - N/A   Mostly Cloudy
11:15 AM 46.4 °F 42.9 °F 41.0 °F 81% 30.42 in 6.2 mi NE 6.9 mph - N/A   Partly Cloudy
11:45 AM 48.2 °F - 41.0 °F 76% 30.42 in 6.2 mi NE 4.6 mph - N/A   Partly Cloudy
12:15 PM 48.2 °F - 41.0 °F 76% 30.42 in 6.2 mi North 3.5 mph - N/A   Partly Cloudy
12:45 PM 50.0 °F - 41.0 °F 71% 30.39 in 6.2 mi North 3.5 mph - N/A   Partly Cloudy
1:15 PM 51.8 °F - 41.0 °F 67% 30.39 in 6.2 mi NNW 5.8 mph - N/A   Partly Cloudy
2:15 PM 53.6 °F - 41.0 °F 62% 30.36 in - North 4.6 mph - N/A   Clear
2:45 PM 55.4 °F - 41.0 °F 58% 30.36 in - North 4.6 mph - N/A   Clear
3:15 PM 55.4 °F - 41.0 °F 58% 30.36 in - North 3.5 mph - N/A   Clear
3:45 PM 55.4 °F - 41.0 °F 58% 30.36 in - North 3.5 mph - N/A   Clear
4:15 PM 55.4 °F - 41.0 °F 58% 30.33 in - NNE 3.5 mph - N/A   Clear
4:45 PM 53.6 °F - 41.0 °F 62% 30.33 in 6.2 mi NNE 2.3 mph - N/A   Scattered Clouds
5:15 PM 53.6 °F - 41.0 °F 62% 30.33 in 6.2 mi NE 2.3 mph - N/A   Scattered Clouds
5:45 PM 51.8 °F - 39.2 °F 62% 30.33 in 6.2 mi NNE 4.6 mph - N/A   Scattered Clouds
6:15 PM 50.0 °F - 39.2 °F 66% 30.33 in 6.2 mi NE 3.5 mph - N/A   Partly Cloudy
6:45 PM 50.0 °F - 39.2 °F 66% 30.33 in - NE 3.5 mph - N/A   Clear
7:15 PM 48.2 °F - 39.2 °F 71% 30.33 in - NE 3.5 mph - N/A   Clear
7:45 PM 46.4 °F 44.3 °F 37.4 °F 71% 30.33 in - ENE 4.6 mph - N/A   Clear
8:15 PM 46.4 °F - 37.4 °F 71% 30.33 in - ENE 2.3 mph - N/A   Clear
8:45 PM 46.4 °F 45.2 °F 39.2 °F 76% 30.33 in - ENE 3.5 mph - N/A   Clear
9:15 PM 46.4 °F 45.2 °F 39.2 °F 76% 30.33 in - ENE 3.5 mph - N/A   Clear
9:45 PM 44.6 °F 42.2 °F 39.2 °F 81% 30.33 in - ENE 4.6 mph - N/A   Clear
10:15 PM 46.4 °F 44.3 °F 39.2 °F 76% 30.30 in - NNE 4.6 mph - N/A   Clear
10:45 PM 44.6 °F 43.1 °F 39.2 °F 81% 30.30 in - NE 3.5 mph - N/A   Clear
11:15 PM 44.6 °F 42.2 °F 39.2 °F 81% 30.30 in - NE 4.6 mph - N/A   Clear
11:45 PM 42.8 °F 40.1 °F 39.2 °F 87% 30.30 in - ENE 4.6 mph - N/A   Clear